North Bennington, VT

3:10 AM EST on February 11, 2016 (GMT -0500)
Morse State

Weather History for KDDH - February, 2013

Change the Weather History Date:

Tuesday, February 26, 2013

  Actual Average Record
Temperature  
Mean Temperature 32 °F 28 °F  
Max Temperature 42 °F 38 °F 20 °F (2014)
Min Temperature 21 °F 18 °F 4 °F (2014)
Degree Days  
Heating Degree Days 33 37  
Month to date heating degree days 1041 1046  
Since 1 July heating degree days 4729 5177  
Cooling Degree Days 0 0  
Month to date cooling degree days 0 0  
Year to date cooling degree days 0 0  
Moisture  
Dew Point 24 °F    
Average Humidity 73    
Maximum Humidity 92    
Minimum Humidity 54    
Precipitation  
Precipitation 0.00 in 0.09 in 0.01 in (2014)
Month to date precipitation 0.87 2.05  
Year to date precipitation 2.32 4.80  
Sea Level Pressure  
Sea Level Pressure 30.22 in    
Wind  
Wind Speed 6 mph (ESE)    
Max Wind Speed 25 mph    
Max Gust Speed 40 mph    
Visibility 10 miles    
Events      
T = Trace of Precipitation, MM = Missing Value Source: NWS Daily Summary

Daily Weather History Graph

Daily Weather History Graph

Search for Another Location

Airport or City:

Trip Planner

Search our weather history database for the weather conditions in past years. The results will help you decide how hot, cold, wet, or windy it might be!

Date:

Astronomy

Feb. 26, 2013 Rise Set
Actual Time 6:33 AM EST 5:38 PM EST
Civil Twilight 6:04 AM EST 6:07 PM EST
Nautical Twilight 5:32 AM EST 6:40 PM EST
Astronomical Twilight 4:59 AM EST 7:13 PM EST
Moon 6:56 PM EST (2/26) 6:32 AM EST (2/26)
Length of Visible Light 12h 02m
Length of Day
11h 05m
Full, 99% of the Moon is Illuminated
Feb 26
Full
Mar 4
Last Quarter
Mar 11
New
Mar 19
First Quarter
Mar 27
Full

Hourly Weather History & Observations

Time (EST) Temp. Windchill Dew Point Humidity Pressure Visibility Wind Dir Wind Speed Gust Speed Precip Events Conditions
12:54 AM 30.0 °F - 26.1 °F 85% 30.24 in 10.0 mi Calm Calm - N/A   Overcast
1:54 AM 28.9 °F - 25.0 °F 85% 30.23 in 10.0 mi Calm Calm - N/A   Overcast
2:54 AM 28.0 °F - 24.1 °F 85% 30.27 in 10.0 mi Calm Calm - N/A   Mostly Cloudy
4:54 AM 24.1 °F - 21.0 °F 88% 30.27 in 8.0 mi Calm Calm - N/A   Clear
5:54 AM 23.0 °F - 19.9 °F 88% 30.29 in 8.0 mi Calm Calm - N/A   Clear
6:54 AM 21.9 °F - 19.0 °F 89% 30.30 in 8.0 mi Calm Calm - N/A   Clear
7:54 AM 28.0 °F - 24.1 °F 85% 30.30 in 10.0 mi Calm Calm - N/A   Clear
9:54 AM 37.9 °F 34.4 °F 26.1 °F 62% 30.28 in 10.0 mi SE 4.6 mph - N/A   Clear
10:54 AM 41.0 °F 35.8 °F 26.1 °F 55% 30.28 in 10.0 mi ESE 8.1 mph - N/A   Overcast
11:54 AM 39.0 °F 33.4 °F 25.0 °F 57% 30.27 in 10.0 mi ESE 8.1 mph - N/A   Overcast
12:54 PM 39.0 °F 32.8 °F 24.1 °F 55% 30.27 in 10.0 mi ESE 9.2 mph - N/A   Overcast
1:54 PM 39.0 °F 32.3 °F 25.0 °F 57% 30.25 in 10.0 mi ESE 10.4 mph - N/A   Overcast
2:54 PM 37.9 °F 30.5 °F 25.0 °F 60% 30.22 in 10.0 mi ESE 11.5 mph - N/A   Overcast
3:54 PM 37.9 °F 31.5 °F 24.1 °F 57% 30.22 in 10.0 mi SE 9.2 mph 18.4 mph N/A   Overcast
4:54 PM 37.9 °F 32.1 °F 24.1 °F 57% 30.20 in 10.0 mi SE 8.1 mph - N/A   Overcast
5:54 PM 37.0 °F 31.0 °F 24.1 °F 59% 30.19 in 10.0 mi SE 8.1 mph - N/A   Overcast
6:54 PM 37.0 °F 33.3 °F 25.0 °F 62% 30.18 in 10.0 mi ESE 4.6 mph - N/A   Overcast
7:54 PM 37.0 °F 30.4 °F 26.1 °F 65% 30.18 in 10.0 mi SE 9.2 mph 16.1 mph N/A   Overcast
8:54 PM 37.0 °F 28.9 °F 26.1 °F 65% 30.15 in 10.0 mi SE 12.7 mph - N/A   Mostly Cloudy
9:54 PM 36.0 °F 29.0 °F 24.1 °F 62% 30.09 in 10.0 mi East 9.2 mph 21.9 mph N/A   Partly Cloudy
10:54 PM 36.0 °F 26.7 °F 21.0 °F 55% 30.06 in 10.0 mi ESE 15.0 mph 25.3 mph N/A   Clear
11:54 PM 36.0 °F 26.0 °F 21.9 °F 57% 30.04 in 10.0 mi ESE 17.3 mph 38.0 mph N/A   Overcast